Flag for U.S.A. Weather past 2 weeks in Victoria, Texas, U.S.A.

Now
88 °F

Passing clouds.


Feels Like: 99 °F
Forecast: 74 / 89 °F
Wind: 15 mph from South

Location: Victoria Regional Airport

Current Time: Sep 4, 2015 at 6:28:33 PM

Latest Report: Sep 4, 2015 at 5:51 PM


Visibility: 10 mi

Pressure: 29.89 "Hg

Humidity: 67%

Dew point: 76 °F

Location of VictoriaLocation

Historic Weather in Victoria — Graph

°F

Victoria temperature yesterday

Maximum temperature yesterday: 87 °F (at 11:51 AM)
Minimum temperature yesterday: 72 °F (at 2:59 AM)
Average temperature yesterday: 78 °F

Past Weeks' High & Low Weather Summary

 TemperatureHumidityPressure
High97 °F (Aug 24, 4:51 PM)100% (Aug 20, 4:51 PM)30.12 "Hg (Aug 20, 4:51 PM)
Low65 °F (Aug 27, 6:51 AM)34% (Aug 27, 2:51 PM)29.83 "Hg (Sep 3, 7:51 PM)
Average80 °F81%29.98 "Hg
* Reported Aug 20 4:51 PM — Sep 4 4:51 PM, Victoria, Weather by CustomWeather, © 2015

Note: Actual official high and low records may vary slightly from our data, if they occured in-between our weather recording intervals... More about our weather records

Advertising

Victoria weather history for previous 24 hours

 ConditionsComfort  
Time TempWeatherWind HumidityBarometerVisibility
4:51 PM
Fri, Sep 4
90 °FScattered clouds.17 mph63%29.89 "Hg10 mi
3:51 PM87 °FScattered clouds.14 mph72%29.89 "Hg10 mi
2:51 PM91 °FSunny.9 mph60%29.90 "Hg10 mi
1:51 PM89 °FScattered clouds.12 mph70%29.91 "Hg10 mi
12:54 PM86 °FScattered clouds.6 mph77%29.94 "Hg10 mi
12:04 PM77 °FHeavy rain. Fog.5 mph96%29.96 "Hg1 mi
11:03 AM81 °FMore clouds than sun.3 mph85%29.95 "Hg7 mi
9:51 AM84 °FScattered clouds.5 mph85%29.94 "Hg10 mi
8:51 AM79 °FScattered clouds.3 mph100%29.93 "Hg8 mi
7:51 AM75 °FFog.3 mph100%29.92 "Hg5 mi
6:51 AM74 °FFog.5 mph100%29.90 "Hg6 mi
5:51 AM75 °FFog.6 mph100%29.90 "Hg6 mi
4:51 AM75 °FFog.3 mph100%29.89 "Hg5 mi
3:51 AM77 °FPartly cloudy.No wind100%29.88 "Hg7 mi
2:51 AM77 °FFog.No wind100%29.88 "Hg6 mi
1:51 AM77 °FClear.No wind96%29.89 "Hg8 mi
12:51 AM77 °FClear.6 mph100%29.88 "Hg9 mi
11:51 PM
Thu, Sep 3
78 °FClear.7 mph96%29.88 "Hg10 mi
10:51 PM77 °FClear.6 mph96%29.88 "Hg9 mi
9:51 PM77 °FClear.5 mph96%29.87 "Hg10 mi
8:51 PM79 °FClear.7 mph90%29.84 "Hg10 mi
7:51 PM81 °FSunny.10 mph88%29.83 "Hg10 mi
6:51 PM84 °FSunny.9 mph74%29.84 "Hg10 mi
Weather by CustomWeather, © 2015

See weather overviewHow to use our weather pages